XNO722 WMKL-WMKA

Flight info

Callsign XNO722
Flight time 0h 13m
Altitude 11000
Route MULOT1B MULOT MULOT1E
Aircraft A320/M-SDE3FGHIRWY/LB1

Departure

Time 2026-04-25 01:11
Airport Langkawi International Airport (WMKL)

Arrival

Time 2026-04-25 01:24
Airport Sultan Abdul Halim Airport (WMKA)
Time Latitude Longitude Altitude Speed Heading
2026-04-25 00:47 6.34125 99.73280 32 ft 0 kts 303°
2026-04-25 01:02 6.34124 99.73281 32 ft 2 kts 303°
2026-04-25 01:02 6.34110 99.73301 31 ft 4 kts 312°
2026-04-25 01:02 6.34097 99.73313 32 ft 4 kts 326°
2026-04-25 01:02 6.34075 99.73322 32 ft 4 kts 17°
2026-04-25 01:03 6.34068 99.73319 32 ft 0 kts 34°
2026-04-25 01:05 6.34074 99.73324 30 ft 1 kts 34°
2026-04-25 01:06 6.34137 99.73366 31 ft 18 kts 37°
2026-04-25 01:07 6.34171 99.73482 32 ft 18 kts 58°
2026-04-25 01:07 6.34281 99.73560 32 ft 21 kts 34°
2026-04-25 01:07 6.34403 99.73645 31 ft 19 kts 38°
2026-04-25 01:07 6.34445 99.73746 32 ft 6 kts 112°
2026-04-25 01:08 6.34444 99.73749 31 ft 0 kts 112°
2026-04-25 01:08 6.34444 99.73750 32 ft 1 kts 112°
2026-04-25 01:08 6.34423 99.73786 32 ft 11 kts 124°
2026-04-25 01:08 6.34364 99.73812 32 ft 9 kts 199°
2026-04-25 01:09 6.34335 99.73794 32 ft 0 kts 213°
2026-04-25 01:10 6.34259 99.73742 32 ft 48 kts 214°
2026-04-25 01:10 6.33754 99.73397 32 ft 123 kts 214°
2026-04-25 01:10 6.32886 99.72801 74 ft 174 kts 214°
2026-04-25 01:10 6.31816 99.72070 512 ft 197 kts 212°
2026-04-25 01:11 6.30511 99.71547 1214 ft 207 kts 186°
2026-04-25 01:11 6.29108 99.71819 2047 ft 208 kts 150°
2026-04-25 01:11 6.28139 99.72846 2855 ft 204 kts 112°
2026-04-25 01:11 6.27968 99.74241 3464 ft 212 kts 79°
2026-04-25 01:12 6.28337 99.75756 3936 ft 235 kts 82°
2026-04-25 01:12 6.28083 99.77450 4425 ft 261 kts 111°
2026-04-25 01:12 6.27215 99.79103 5253 ft 272 kts 121°
2026-04-25 01:12 6.26159 99.80701 6248 ft 276 kts 124°
2026-04-25 01:13 6.25073 99.82305 7251 ft 279 kts 123°
2026-04-25 01:13 6.24006 99.83951 8186 ft 283 kts 122°
2026-04-25 01:13 6.22958 99.85647 8761 ft 288 kts 121°
2026-04-25 01:13 6.21936 99.87375 8965 ft 287 kts 120°
2026-04-25 01:14 6.20940 99.89114 9081 ft 288 kts 119°
2026-04-25 01:14 6.19958 99.90862 8801 ft 286 kts 119°
2026-04-25 01:14 6.18991 99.92600 8660 ft 285 kts 118°
2026-04-25 01:14 6.18025 99.94337 8535 ft 284 kts 119°
2026-04-25 01:15 6.17070 99.96075 8409 ft 284 kts 116°
2026-04-25 01:15 6.16431 99.97947 8284 ft 284 kts 101°
2026-04-25 01:15 6.16293 99.99918 8160 ft 284 kts 87°
2026-04-25 01:15 6.16418 100.01896 8032 ft 283 kts 87°
2026-04-25 01:16 6.16536 100.03871 7913 ft 283 kts 87°
2026-04-25 01:16 6.16596 100.05841 7777 ft 282 kts 95°
2026-04-25 01:16 6.16200 100.07764 7483 ft 282 kts 110°
2026-04-25 01:16 6.15276 100.09498 6986 ft 283 kts 125°
2026-04-25 01:17 6.14138 100.11090 6476 ft 277 kts 125°
2026-04-25 01:17 6.13024 100.12660 5975 ft 275 kts 125°
2026-04-25 01:17 6.11921 100.14222 5474 ft 273 kts 125°
2026-04-25 01:17 6.10827 100.15774 4981 ft 272 kts 125°
2026-04-25 01:18 6.09752 100.17299 4495 ft 270 kts 124°
2026-04-25 01:18 6.08666 100.18840 4003 ft 270 kts 124°
2026-04-25 01:18 6.07548 100.20362 3412 ft 274 kts 132°
2026-04-25 01:18 6.06102 100.21623 2910 ft 275 kts 136°
2026-04-25 01:19 6.05056 100.23122 2649 ft 253 kts 111°
2026-04-25 01:19 6.04723 100.24785 2588 ft 236 kts 89°
2026-04-25 01:19 6.04993 100.26353 2529 ft 220 kts 69°
2026-04-25 01:19 6.05698 100.27611 2490 ft 196 kts 51°
2026-04-25 01:20 6.06597 100.28510 2468 ft 169 kts 43°
2026-04-25 01:20 6.07413 100.29256 2475 ft 151 kts 43°
2026-04-25 01:20 6.08175 100.29954 2483 ft 146 kts 43°
2026-04-25 01:20 6.08920 100.30635 2377 ft 144 kts 43°
2026-04-25 01:21 6.09657 100.31310 2220 ft 143 kts 43°
2026-04-25 01:21 6.10391 100.31982 2049 ft 142 kts 43°
2026-04-25 01:21 6.11126 100.32654 1861 ft 143 kts 44°
2026-04-25 01:21 6.11861 100.33327 1677 ft 143 kts 43°
2026-04-25 01:22 6.12599 100.34000 1477 ft 143 kts 43°
2026-04-25 01:22 6.13336 100.34675 1292 ft 144 kts 43°
2026-04-25 01:22 6.14079 100.35355 1101 ft 144 kts 43°
2026-04-25 01:22 6.14820 100.36034 909 ft 144 kts 43°
2026-04-25 01:23 6.15562 100.36711 728 ft 144 kts 43°
2026-04-25 01:23 6.16297 100.37385 544 ft 143 kts 43°
2026-04-25 01:23 6.17028 100.38053 353 ft 141 kts 43°
2026-04-25 01:23 6.17755 100.38718 155 ft 141 kts 43°
2026-04-25 01:24 6.18462 100.39367 28 ft 126 kts 43°
2026-04-25 01:24 6.18930 100.39796 23 ft 37 kts 41°
2026-04-25 01:24 6.19015 100.39839 23 ft 11 kts 360°
2026-04-25 01:24 6.19065 100.39812 22 ft 5 kts 320°
2026-04-25 01:25 6.19091 100.39783 21 ft 7 kts 308°
2026-04-25 01:25 6.19120 100.39749 21 ft 6 kts 314°
2026-04-25 01:25 6.19144 100.39725 20 ft 4 kts 315°
2026-04-25 01:25 6.19162 100.39706 23 ft 6 kts 314°
2026-04-25 01:26 6.19164 100.39660 20 ft 6 kts 266°
2026-04-25 01:26 6.19163 100.39647 20 ft 0 kts 269°